Location: Fayetteville
(35.0530°N, 78.8790°W)
Time: 10:32:42
(UTC-04:00)

ISS - Visible Passes

Search period start: 22 May 2015 00:00
Search period end: 01 June 2015 00:00
Orbit: 399 x 404 km, 51.6° (Epoch: 22 May)

Date Brightness Start Highest point End Pass type
(mag) Time Alt. Az. Time Alt. Az. Time Alt. Az.
23 May 0.1 02:48:09 12° N 02:48:09 12° N 02:48:34 10° N visible
29 May -0.7 05:30:08 10° NNW 05:32:54 25° NE 05:35:41 10° E visible
30 May -0.1 04:37:19 10° N 04:39:17 15° NNE 04:41:19 10° ENE visible
30 May -1.9 21:14:05 10° S 21:16:21 18° SE 21:18:42 10° E visible
30 May -1.6 22:49:37 10° WSW 22:52:36 33° NW 22:55:35 10° NNE visible
31 May -2.6 05:19:21 10° NW 05:22:35 58° NE 05:25:47 10° ESE visible
31 May -3.1 21:55:53 10° SW 21:59:05 71° NW 22:02:20 10° NE visible
31 May 0.3 23:35:08 10° NW 23:36:02 11° NNW 23:36:51 10° N visible
